Regional Weather Roundup
Issued by NWS Green Bay, WI

Home | Current Version | Previous Version | Graphics & Text | Print | Product List | Glossary Off
Versions: 1 2 3 4 5 6 7 8 9 10 11 12 13 14 15 16 17 18 19 20 21 22 23 24 25 26 27 28 29 30 31 32 33 34 35 36 37 38 39 40 41 42 43 44 45 46 47 48 49 50

993
ASUS43 KGRB 210811
RWRGRB

NORTH-CENTRAL AND NORTHEAST WISCONSIN REGIONAL WEATHER ROUNDUP
NATIONAL WEATHER SERVICE GREEN BAY WI
300 AM CDT FRI JUL 21 2017

WIZ005-009-010>012-018-019-210900-
NORTH CENTRAL WISCONSIN

CITY           SKY/WX    TMP DP  RH WIND       PRES   REMARKS
IRONWOOD       CLEAR     59  58  96 CALM      29.99R
MANITOWISH WTR FOG       56  56 100 CALM      30.01R VSB 1/2
ARBOR VITAE    CLEAR     60  58  94 CALM      30.01R
EAGLE RIVER    FOG       56  56 100 CALM      30.02R VSB 3/4
LAND O LAKES   CLEAR     56  56 100 CALM      30.02R
RHINELANDER    CLEAR     62  62 100 NW3       30.03R
PHILLIPS       PTCLDY    58  58 100 CALM      30.01S
ANTIGO         CLEAR     57  57  99 CALM      30.02S
TOMAHAWK         N/A     55  54  97 CALM      30.02S
MERRILL        FOG       58  58 100 CALM      30.00F VSB 1/2
$$

WIZ013-073-210900-
NORTHEAST WISCONSIN

CITY           SKY/WX    TMP DP  RH WIND       PRES   REMARKS
IRON MOUNTAIN  CLEAR     57  54  89 CALM      29.97R
MARINETTE      CLEAR     63  62  97 CALM      29.97S FOG
OCONTO         CLEAR     61  60  96 CALM      29.97S
$$

WIZ017-030-035>037-045-210900-
CENTRAL WISCONSIN

CITY           SKY/WX    TMP DP  RH WIND       PRES   REMARKS
MEDFORD        FOG       62  61  98 CALM      30.01R VSB 3/4
WAUSAU         CLEAR     67  64  90 SW5       29.99S
MOSINEE        CLEAR     61  61 100 CALM      30.02R
MARSHFIELD     FOG       62  61  96 CALM      30.00S VSB 3/4
WISC RAPIDS    FOG       63  62  97 CALM      30.01F VSB 1
STEVENS POINT  PTCLDY    59  59 100 CALM      30.01S FOG
WAUPACA        CLEAR     65  65  97 CALM      29.99S FOG
SHAWANO        CLEAR     64  62  92 CALM      29.98S
CLINTONVILLE   FOG       63  63 100 CALM      29.99R VSB 3/4
WAUTOMA        CLOUDY    63  62  97 CALM      29.99F
$$

WIZ038-039-048-051-210900-
FOX VALLEY

CITY           SKY/WX    TMP DP  RH WIND       PRES   REMARKS
NWS GREEN BAY  CLEAR     64  64 100 SW3       29.97F
APPLETON       CLEAR     64  64 100 NW9       29.97S
OSHKOSH        CLOUDY    68  65  90 W5        29.97S
FOND DU LAC    CLOUDY    68  64  87 CALM      29.98F
$$

WIZ022-050-052-210900-
EAST CENTRAL WISCONSIN

CITY           SKY/WX    TMP DP  RH WIND       PRES   REMARKS
EPHRAIM        FAIR      65  64  94 E3        29.96S
WASHINGTON ISL FAIR      65  64  99 CALM      29.95R FOG
STURGEON BAY     N/A     70  61  73 E3        29.97R
MANITOWOC      CLEAR     70  66  87 W5        29.97F
SHEBOYGAN      CLEAR     65  65 100 CALM      29.96F
$$

LMZ563-521-522-541>543-210900-
LAKESHORE

STATION/POSITION TIME  TEMP    WIND        PRES    VSBY  WAVE
                       AIR SEA DIR/SP/G                  HT/PER
                 (UTC) (F)     (DEG/KT/KT) (MB)    (MI)  (FT/S)
SHEBOYGAN LKSHOR 0800   73     260/  6/  7 1013.9F
KEWAUNEE LKSHORE 0742   68     310/  3/  5 1014.1R
NORTHPORT PIER   0740   67     150/  5/  5 1014.2S
N MID LAKE BUOY  0750   66 65  150/ 10/ 12 1014.4F         1/ 5
S GREEN BAY BUOY 0730   73 73   30/  6/  8 1014.8R
SISTER BAY LKSHO 0802   68     110/  8/ 10   N/A
CHAMBERS ISLAND  0740   66      CALM  /  1 1013.9S
MENOMINEE LKSHOR 0742   70     240/  1/  1 1014.4R
$$




USA.gov is the U.S. government's official web portal to all federal, state and local government web resources and services.